User: anonymous   Login
Location: Gro�bocka
(50.8204°N, 11.9702°E)
Time: 16:15:54
(UTC+00:00)
Language:

Cosmos 1346 Rocket - Orbit

View from above orbital plane
View from above orbital plane
View from above satellite
View from above satellite

Ground track
Ground track

The orbit data is extracted from the following two-line orbital elements,

1 13121U 82027B   21019.13472962 -.00000249  00000-0 -17223-4 0  9990
2 13121  81.1648  51.2265 0009853  50.6330 309.5766 15.09034521114801
Epoch (UTC): 19 January 2021 03:14:00
Eccentricity: 0.0009853
inclination: 81.1648°
perigee height: 532 km
apogee height: 546 km
right ascension of ascending node: 51.2265°
argument of perigee: 50.6330°
revolutions per day: 15.09034521
mean anomaly at epoch: 309.5766°
orbit number at epoch: 11480

The dashed part of the orbit path shows where the satellite is in the earth's shadow,  

DLR